contact:dominique.lefevre@mio.osupytheas.fr, maurice.libes@osupytheas.fr, didier.mallarino@osupytheas.fr
Project:EMSO http://www.emso-fr.org/EMSO-France
Depth: 2436.0 m
Title:EMSO Ligure Ouest : Data MII capteur MICROCAT
DateTime_Computer,Latitude,Longitude,Temperature,Conductivity,Pressure,DateTime_Instrument
DateTime_Computer,Latitude,Longitude,degC,S m-1,dbar,DateTime_Instrument
2020-08-14T00:00:11Z,42.805,6.029,13.2971,4.59973,2470.194,2020-8-14T02:01:00Z
2020-08-14T00:03:14Z,42.805,6.029,13.2972,4.59971,2470.18,2020-8-14T02:04:03Z
2020-08-14T00:06:17Z,42.805,6.029,13.2967,4.59972,2470.133,2020-8-14T02:07:06Z
2020-08-14T00:09:21Z,42.805,6.029,13.2972,4.59972,2470.133,2020-8-14T02:10:10Z
2020-08-14T00:12:24Z,42.805,6.029,13.2971,4.59972,2470.11,2020-8-14T02:13:13Z
2020-08-14T00:15:27Z,42.805,6.029,13.2971,4.59971,2470.147,2020-8-14T02:16:16Z
2020-08-14T00:18:31Z,42.805,6.029,13.2971,4.59971,2470.11,2020-8-14T02:19:20Z
2020-08-14T00:21:34Z,42.805,6.029,13.2968,4.59973,2470.133,2020-8-14T02:22:23Z
2020-08-14T00:24:37Z,42.805,6.029,13.2968,4.59973,2470.18,2020-8-14T02:25:26Z
2020-08-14T00:27:41Z,42.805,6.029,13.2971,4.59973,2470.156,2020-8-14T02:28:30Z
2020-08-14T00:30:44Z,42.805,6.029,13.2970,4.59972,2470.147,2020-8-14T02:31:33Z
2020-08-14T00:33:47Z,42.805,6.029,13.2973,4.59971,2470.133,2020-8-14T02:34:36Z
2020-08-14T00:36:51Z,42.805,6.029,13.2972,4.59973,2470.194,2020-8-14T02:37:40Z
2020-08-14T00:39:54Z,42.805,6.029,13.2970,4.59971,2470.133,2020-8-14T02:40:43Z
2020-08-14T00:42:57Z,42.805,6.029,13.2968,4.59973,2470.143,2020-8-14T02:43:46Z
2020-08-14T00:46:00Z,42.805,6.029,13.2971,4.59973,2470.133,2020-8-14T02:46:49Z
2020-08-14T00:49:04Z,42.805,6.029,13.2968,4.59973,2470.156,2020-8-14T02:49:53Z
2020-08-14T00:52:07Z,42.805,6.029,13.2970,4.59972,2470.156,2020-8-14T02:52:56Z
2020-08-14T00:55:10Z,42.805,6.029,13.2970,4.59973,2470.156,2020-8-14T02:55:59Z
2020-08-14T00:58:13Z,42.805,6.029,13.2970,4.59971,2470.156,2020-8-14T02:59:02Z
2020-08-14T01:01:16Z,42.805,6.029,13.2971,4.59972,2470.156,2020-8-14T03:02:06Z
2020-08-14T01:04:20Z,42.805,6.029,13.2971,4.59971,2470.147,2020-8-14T03:05:09Z
2020-08-14T01:07:23Z,42.805,6.029,13.2968,4.59973,2470.156,2020-8-14T03:08:12Z
2020-08-14T01:10:26Z,42.805,6.029,13.2971,4.59972,2470.171,2020-8-14T03:11:15Z
2020-08-14T01:13:29Z,42.805,6.029,13.2968,4.59972,2470.156,2020-8-14T03:14:19Z
2020-08-14T01:16:33Z,42.805,6.029,13.2968,4.59972,2470.133,2020-8-14T03:17:22Z
2020-08-14T01:19:36Z,42.805,6.029,13.2969,4.59971,2470.133,2020-8-14T03:20:25Z
2020-08-14T01:22:39Z,42.805,6.029,13.2973,4.59971,2470.156,2020-8-14T03:23:28Z
2020-08-14T01:25:43Z,42.805,6.029,13.2971,4.59973,2470.156,2020-8-14T03:26:32Z
2020-08-14T01:28:46Z,42.805,6.029,13.2971,4.59973,2470.133,2020-8-14T03:29:35Z
2020-08-14T01:31:49Z,42.805,6.029,13.2970,4.59973,2470.133,2020-8-14T03:32:38Z
2020-08-14T01:34:52Z,42.805,6.029,13.2972,4.59972,2470.217,2020-8-14T03:35:42Z
2020-08-14T01:37:56Z,42.805,6.029,13.2971,4.59973,2470.171,2020-8-14T03:38:45Z
2020-08-14T01:40:59Z,42.805,6.029,13.2969,4.59973,2470.133,2020-8-14T03:41:48Z
2020-08-14T01:44:02Z,42.805,6.029,13.2970,4.59973,2470.156,2020-8-14T03:44:51Z
2020-08-14T01:47:06Z,42.805,6.029,13.2971,4.59973,2470.166,2020-8-14T03:47:55Z
2020-08-14T01:50:09Z,42.805,6.029,13.2971,4.59972,2470.156,2020-8-14T03:50:58Z
2020-08-14T01:53:12Z,42.805,6.029,13.2969,4.59972,2470.18,2020-8-14T03:54:01Z
2020-08-14T01:56:15Z,42.805,6.029,13.2970,4.59972,2470.156,2020-8-14T03:57:05Z
2020-08-14T01:59:19Z,42.805,6.029,13.2971,4.59972,2470.166,2020-8-14T04:00:08Z
2020-08-14T02:02:22Z,42.805,6.029,13.2968,4.59973,2470.18,2020-8-14T04:03:11Z
2020-08-14T02:05:26Z,42.805,6.029,13.2969,4.59973,2470.171,2020-8-14T04:06:15Z
2020-08-14T02:08:29Z,42.805,6.029,13.2975,4.59973,2470.147,2020-8-14T04:09:18Z
2020-08-14T02:11:32Z,42.805,6.029,13.2969,4.59973,2470.156,2020-8-14T04:12:21Z
2020-08-14T02:14:35Z,42.805,6.029,13.2968,4.59973,2470.18,2020-8-14T04:15:24Z
2020-08-14T02:17:39Z,42.805,6.029,13.2968,4.59972,2470.156,2020-8-14T04:18:28Z
2020-08-14T02:20:42Z,42.805,6.029,13.2968,4.59972,2470.171,2020-8-14T04:21:31Z
2020-08-14T02:23:45Z,42.805,6.029,13.2972,4.59973,2470.194,2020-8-14T04:24:34Z
2020-08-14T02:26:48Z,42.805,6.029,13.2968,4.59973,2470.18,2020-8-14T04:27:37Z
2020-08-14T02:29:52Z,42.805,6.029,13.2969,4.59972,2470.18,2020-8-14T04:30:41Z
2020-08-14T02:32:55Z,42.805,6.029,13.2969,4.59971,2470.203,2020-8-14T04:33:44Z
2020-08-14T02:35:58Z,42.805,6.029,13.2971,4.59973,2470.18,2020-8-14T04:36:47Z
2020-08-14T02:39:02Z,42.805,6.029,13.2971,4.59972,2470.156,2020-8-14T04:39:51Z
2020-08-14T02:42:05Z,42.805,6.029,13.2970,4.59972,2470.156,2020-8-14T04:42:54Z
2020-08-14T02:45:08Z,42.805,6.029,13.2970,4.59973,2470.194,2020-8-14T04:45:57Z
2020-08-14T02:48:11Z,42.805,6.029,13.2971,4.59971,2470.18,2020-8-14T04:49:00Z
2020-08-14T02:51:14Z,42.805,6.029,13.2971,4.59973,2470.156,2020-8-14T04:52:03Z
2020-08-14T02:54:18Z,42.805,6.029,13.2969,4.59973,2470.156,2020-8-14T04:55:07Z
2020-08-14T02:57:21Z,42.805,6.029,13.2971,4.59974,2470.156,2020-8-14T04:58:10Z
2020-08-14T03:00:24Z,42.805,6.029,13.2974,4.59973,2470.171,2020-8-14T05:01:13Z
2020-08-14T03:03:27Z,42.805,6.029,13.2971,4.59973,2470.18,2020-8-14T05:04:16Z
2020-08-14T03:06:31Z,42.805,6.029,13.2968,4.59976,2470.133,2020-8-14T05:07:20Z
2020-08-14T03:09:34Z,42.805,6.029,13.2968,4.59973,2470.18,2020-8-14T05:10:23Z
2020-08-14T03:12:37Z,42.805,6.029,13.2968,4.59973,2470.156,2020-8-14T05:13:26Z
2020-08-14T03:15:40Z,42.805,6.029,13.2972,4.59973,2470.147,2020-8-14T05:16:30Z
2020-08-14T03:18:44Z,42.805,6.029,13.2972,4.59973,2470.171,2020-8-14T05:19:33Z
2020-08-14T03:21:47Z,42.805,6.029,13.2971,4.59972,2470.147,2020-8-14T05:22:36Z
2020-08-14T03:24:50Z,42.805,6.029,13.2973,4.59972,2470.133,2020-8-14T05:25:39Z
2020-08-14T03:27:54Z,42.805,6.029,13.2968,4.59973,2470.133,2020-8-14T05:28:43Z
2020-08-14T03:30:57Z,42.805,6.029,13.2970,4.59972,2470.156,2020-8-14T05:31:46Z
2020-08-14T03:34:00Z,42.805,6.029,13.2970,4.59973,2470.156,2020-8-14T05:34:49Z
2020-08-14T03:37:03Z,42.805,6.029,13.2971,4.59973,2470.18,2020-8-14T05:37:52Z
2020-08-14T03:40:07Z,42.805,6.029,13.2969,4.59973,2470.133,2020-8-14T05:40:56Z
2020-08-14T03:43:10Z,42.805,6.029,13.2968,4.59972,2470.133,2020-8-14T05:43:59Z
2020-08-14T03:46:13Z,42.805,6.029,13.2974,4.59974,2470.11,2020-8-14T05:47:02Z
2020-08-14T03:49:16Z,42.805,6.029,13.2968,4.59973,2470.156,2020-8-14T05:50:06Z
2020-08-14T03:52:20Z,42.805,6.029,13.2971,4.59972,2470.143,2020-8-14T05:53:09Z
2020-08-14T03:55:23Z,42.805,6.029,13.2969,4.59973,2470.147,2020-8-14T05:56:12Z
2020-08-14T03:58:26Z,42.805,6.029,13.2969,4.59972,2470.133,2020-8-14T05:59:16Z
2020-08-14T04:01:30Z,42.805,6.029,13.2972,4.59973,2470.133,2020-8-14T06:02:19Z
2020-08-14T04:04:33Z,42.805,6.029,13.2971,4.59973,2470.133,2020-8-14T06:05:22Z
2020-08-14T04:07:36Z,42.805,6.029,13.2971,4.59973,2470.156,2020-8-14T06:08:25Z
2020-08-14T04:10:39Z,42.805,6.029,13.2970,4.59973,2470.133,2020-8-14T06:11:28Z
2020-08-14T04:13:42Z,42.805,6.029,13.2971,4.59974,2470.133,2020-8-14T06:14:32Z
2020-08-14T04:16:46Z,42.805,6.029,13.2968,4.59974,2470.18,2020-8-14T06:17:35Z
2020-08-14T04:19:49Z,42.805,6.029,13.2970,4.59973,2470.133,2020-8-14T06:20:38Z
2020-08-14T04:22:52Z,42.805,6.029,13.2968,4.59973,2470.133,2020-8-14T06:23:41Z
2020-08-14T04:25:55Z,42.805,6.029,13.2974,4.59973,2470.171,2020-8-14T06:26:44Z
2020-08-14T04:28:59Z,42.805,6.029,13.2970,4.59973,2470.156,2020-8-14T06:29:48Z
2020-08-14T04:32:02Z,42.805,6.029,13.2970,4.59975,2470.133,2020-8-14T06:32:51Z
2020-08-14T04:35:05Z,42.805,6.029,13.2970,4.59973,2470.11,2020-8-14T06:35:54Z
2020-08-14T04:38:08Z,42.805,6.029,13.2971,4.59974,2470.194,2020-8-14T06:38:57Z
2020-08-14T04:41:12Z,42.805,6.029,13.2970,4.59973,2470.156,2020-8-14T06:42:01Z
2020-08-14T04:44:15Z,42.805,6.029,13.2969,4.59972,2470.147,2020-8-14T06:45:04Z
2020-08-14T04:47:18Z,42.805,6.029,13.2968,4.59974,2470.171,2020-8-14T06:48:08Z
2020-08-14T04:50:22Z,42.805,6.029,13.2971,4.59972,2470.133,2020-8-14T06:51:11Z
2020-08-14T04:53:25Z,42.805,6.029,13.2974,4.59973,2470.133,2020-8-14T06:54:14Z
2020-08-14T04:56:28Z,42.805,6.029,13.2971,4.59973,2470.18,2020-8-14T06:57:17Z
2020-08-14T04:59:31Z,42.805,6.029,13.2971,4.59973,2470.133,2020-8-14T07:00:20Z
2020-08-14T05:02:35Z,42.805,6.029,13.2969,4.59973,2470.133,2020-8-14T07:03:24Z
2020-08-14T05:05:38Z,42.805,6.029,13.2971,4.59972,2470.124,2020-8-14T07:06:27Z
2020-08-14T05:08:41Z,42.805,6.029,13.2967,4.59973,2470.147,2020-8-14T07:09:30Z
2020-08-14T05:11:44Z,42.805,6.029,13.2971,4.59973,2470.133,2020-8-14T07:12:33Z
2020-08-14T05:14:48Z,42.805,6.029,13.2970,4.59973,2470.133,2020-8-14T07:15:37Z
2020-08-14T05:17:51Z,42.805,6.029,13.2970,4.59973,2470.11,2020-8-14T07:18:40Z
2020-08-14T05:20:54Z,42.805,6.029,13.2967,4.59972,2470.133,2020-8-14T07:21:43Z
2020-08-14T05:23:57Z,42.805,6.029,13.2969,4.59973,2470.133,2020-8-14T07:24:46Z
2020-08-14T05:27:00Z,42.805,6.029,13.2969,4.59973,2470.156,2020-8-14T07:27:50Z
2020-08-14T05:30:04Z,42.805,6.029,13.2972,4.59973,2470.156,2020-8-14T07:30:53Z
2020-08-14T05:33:07Z,42.805,6.029,13.2968,4.59973,2470.147,2020-8-14T07:33:56Z
2020-08-14T05:36:10Z,42.805,6.029,13.2970,4.59973,2470.133,2020-8-14T07:37:00Z
2020-08-14T05:39:14Z,42.805,6.029,13.2972,4.59971,2470.124,2020-8-14T07:40:03Z
2020-08-14T05:42:17Z,42.805,6.029,13.2968,4.59972,2470.124,2020-8-14T07:43:06Z
2020-08-14T05:45:20Z,42.805,6.029,13.2969,4.59973,2470.133,2020-8-14T07:46:09Z
2020-08-14T05:48:23Z,42.805,6.029,13.2971,4.59974,2470.11,2020-8-14T07:49:12Z
2020-08-14T05:51:27Z,42.805,6.029,13.2971,4.59972,2470.133,2020-8-14T07:52:16Z
2020-08-14T05:54:30Z,42.805,6.029,13.2968,4.59973,2470.147,2020-8-14T07:55:19Z
2020-08-14T05:57:33Z,42.805,6.029,13.2968,4.59973,2470.124,2020-8-14T07:58:22Z
2020-08-14T06:00:37Z,42.805,6.029,13.2971,4.59973,2470.124,2020-8-14T08:01:26Z
2020-08-14T06:03:40Z,42.805,6.029,13.2972,4.59972,2470.133,2020-8-14T08:04:29Z
2020-08-14T06:06:43Z,42.805,6.029,13.2971,4.59973,2470.133,2020-8-14T08:07:32Z
2020-08-14T06:09:46Z,42.805,6.029,13.2966,4.59973,2470.087,2020-8-14T08:10:35Z
2020-08-14T06:12:49Z,42.805,6.029,13.2973,4.59973,2470.11,2020-8-14T08:13:39Z
2020-08-14T06:15:53Z,42.805,6.029,13.2968,4.59973,2470.124,2020-8-14T08:16:42Z
2020-08-14T06:18:56Z,42.805,6.029,13.2971,4.59973,2470.11,2020-8-14T08:19:45Z
2020-08-14T06:21:59Z,42.805,6.029,13.2971,4.59973,2470.119,2020-8-14T08:22:48Z
2020-08-14T06:25:02Z,42.805,6.029,13.2970,4.59973,2470.11,2020-8-14T08:25:52Z
2020-08-14T06:28:06Z,42.805,6.029,13.2970,4.59973,2470.11,2020-8-14T08:28:55Z
2020-08-14T06:31:09Z,42.805,6.029,13.2972,4.59975,2470.124,2020-8-14T08:31:58Z
2020-08-14T06:34:12Z,42.805,6.029,13.2966,4.59973,2470.1,2020-8-14T08:35:01Z
2020-08-14T06:37:15Z,42.805,6.029,13.2969,4.59973,2470.087,2020-8-14T08:38:04Z
2020-08-14T06:40:19Z,42.805,6.029,13.2971,4.59973,2470.096,2020-8-14T08:41:08Z
2020-08-14T06:43:22Z,42.805,6.029,13.2974,4.59973,2470.11,2020-8-14T08:44:11Z
2020-08-14T06:46:25Z,42.805,6.029,13.2969,4.59973,2470.11,2020-8-14T08:47:14Z
2020-08-14T06:49:28Z,42.805,6.029,13.2968,4.59973,2470.11,2020-8-14T08:50:18Z
2020-08-14T06:52:32Z,42.805,6.029,13.2970,4.59973,2470.133,2020-8-14T08:53:21Z
2020-08-14T06:55:35Z,42.805,6.029,13.2974,4.59975,2470.087,2020-8-14T08:56:24Z
2020-08-14T06:58:38Z,42.805,6.029,13.2971,4.59973,2470.133,2020-8-14T08:59:27Z
2020-08-14T07:01:41Z,42.805,6.029,13.2971,4.59973,2470.1,2020-8-14T09:02:30Z
2020-08-14T07:04:45Z,42.805,6.029,13.2971,4.59973,2470.087,2020-8-14T09:05:34Z
2020-08-14T07:07:48Z,42.805,6.029,13.2968,4.59973,2470.11,2020-8-14T09:08:37Z
2020-08-14T07:10:51Z,42.805,6.029,13.2971,4.59972,2470.11,2020-8-14T09:11:40Z
2020-08-14T07:13:54Z,42.805,6.029,13.2971,4.59973,2470.1,2020-8-14T09:14:44Z
2020-08-14T07:16:58Z,42.805,6.029,13.2967,4.59972,2470.124,2020-8-14T09:17:47Z
2020-08-14T07:20:01Z,42.805,6.029,13.2969,4.59972,2470.063,2020-8-14T09:20:50Z
2020-08-14T07:23:04Z,42.805,6.029,13.2969,4.59973,2470.077,2020-8-14T09:23:53Z
2020-08-14T07:26:07Z,42.805,6.029,13.2970,4.59973,2470.1,2020-8-14T09:26:56Z
2020-08-14T07:29:10Z,42.805,6.029,13.2967,4.59973,2470.1,2020-8-14T09:30:00Z
2020-08-14T07:32:14Z,42.805,6.029,13.2968,4.59973,2470.087,2020-8-14T09:33:03Z
2020-08-14T07:35:17Z,42.805,6.029,13.2969,4.59973,2470.124,2020-8-14T09:36:06Z
2020-08-14T07:38:20Z,42.805,6.029,13.2968,4.59973,2470.087,2020-8-14T09:39:09Z
2020-08-14T07:41:24Z,42.805,6.029,13.2968,4.59972,2470.1,2020-8-14T09:42:13Z
2020-08-14T07:44:27Z,42.805,6.029,13.2968,4.59972,2470.087,2020-8-14T09:45:16Z
2020-08-14T07:47:30Z,42.805,6.029,13.2967,4.59972,2470.04,2020-8-14T09:48:19Z
2020-08-14T07:50:34Z,42.805,6.029,13.2968,4.59973,2470.1,2020-8-14T09:51:23Z
2020-08-14T07:53:37Z,42.805,6.029,13.2967,4.59973,2470.087,2020-8-14T09:54:26Z
2020-08-14T07:56:40Z,42.805,6.029,13.2971,4.59973,2470.124,2020-8-14T09:57:29Z
2020-08-14T07:59:43Z,42.805,6.029,13.2974,4.59973,2470.087,2020-8-14T10:00:32Z
2020-08-14T08:02:47Z,42.805,6.029,13.2971,4.59973,2470.063,2020-8-14T10:03:36Z
2020-08-14T08:05:50Z,42.805,6.029,13.2969,4.59972,2470.053,2020-8-14T10:06:39Z
2020-08-14T08:08:53Z,42.805,6.029,13.2969,4.59973,2470.063,2020-8-14T10:09:42Z
2020-08-14T08:11:56Z,42.805,6.029,13.2972,4.59973,2470.087,2020-8-14T10:12:45Z
2020-08-14T08:15:00Z,42.805,6.029,13.2969,4.59973,2470.063,2020-8-14T10:15:49Z
2020-08-14T08:18:03Z,42.805,6.029,13.2973,4.59973,2470.063,2020-8-14T10:18:52Z
2020-08-14T08:21:06Z,42.805,6.029,13.2970,4.59973,2470.063,2020-8-14T10:21:55Z
2020-08-14T08:24:09Z,42.805,6.029,13.2971,4.59973,2470.063,2020-8-14T10:24:58Z
2020-08-14T08:27:13Z,42.805,6.029,13.2971,4.59973,2470.063,2020-8-14T10:28:02Z
2020-08-14T08:30:16Z,42.805,6.029,13.2971,4.59973,2470.087,2020-8-14T10:31:05Z
2020-08-14T08:33:19Z,42.805,6.029,13.2971,4.59973,2470.11,2020-8-14T10:34:08Z
2020-08-14T08:36:23Z,42.805,6.029,13.2971,4.59973,2470.063,2020-8-14T10:37:12Z
2020-08-14T08:39:26Z,42.805,6.029,13.2972,4.59973,2470.053,2020-8-14T10:40:15Z
2020-08-14T08:42:29Z,42.805,6.029,13.2971,4.59973,2470.1,2020-8-14T10:43:18Z
2020-08-14T08:45:33Z,42.805,6.029,13.2966,4.59972,2470.063,2020-8-14T10:46:22Z
2020-08-14T08:48:36Z,42.805,6.029,13.2971,4.59973,2470.087,2020-8-14T10:49:25Z
2020-08-14T08:51:39Z,42.805,6.029,13.2974,4.59973,2470.063,2020-8-14T10:52:28Z
2020-08-14T08:54:42Z,42.805,6.029,13.2970,4.59973,2470.04,2020-8-14T10:55:31Z
2020-08-14T08:57:45Z,42.805,6.029,13.2971,4.59973,2470.03,2020-8-14T10:58:35Z
2020-08-14T09:00:49Z,42.805,6.029,13.2968,4.59973,2470.077,2020-8-14T11:01:38Z
2020-08-14T09:03:52Z,42.805,6.029,13.2973,4.59974,2470.063,2020-8-14T11:04:41Z
2020-08-14T09:06:55Z,42.805,6.029,13.2971,4.59972,2470.04,2020-8-14T11:07:44Z
2020-08-14T09:09:59Z,42.805,6.029,13.2970,4.59973,2470.063,2020-8-14T11:10:48Z
2020-08-14T09:13:02Z,42.805,6.029,13.2972,4.59973,2470.026,2020-8-14T11:13:51Z
2020-08-14T09:16:05Z,42.805,6.029,13.2969,4.59973,2470.063,2020-8-14T11:16:54Z
2020-08-14T09:19:08Z,42.805,6.029,13.2974,4.59973,2470.063,2020-8-14T11:19:57Z
2020-08-14T09:22:11Z,42.805,6.029,13.2968,4.59972,2470.063,2020-8-14T11:23:01Z
2020-08-14T09:25:15Z,42.805,6.029,13.2969,4.59972,2470.03,2020-8-14T11:26:04Z
2020-08-14T09:28:18Z,42.805,6.029,13.2971,4.59973,2470.063,2020-8-14T11:29:07Z
2020-08-14T09:31:21Z,42.805,6.029,13.2968,4.59973,2470.053,2020-8-14T11:32:10Z
2020-08-14T09:34:24Z,42.805,6.029,13.2968,4.59973,2470.077,2020-8-14T11:35:14Z
2020-08-14T09:37:28Z,42.805,6.029,13.2968,4.59971,2470.04,2020-8-14T11:38:17Z
2020-08-14T09:40:31Z,42.805,6.029,13.2970,4.59974,2470.04,2020-8-14T11:41:20Z
2020-08-14T09:43:34Z,42.805,6.029,13.2971,4.59973,2470.063,2020-8-14T11:44:23Z
2020-08-14T09:46:37Z,42.805,6.029,13.2972,4.59973,2470.063,2020-8-14T11:47:27Z
2020-08-14T09:49:41Z,42.805,6.029,13.2974,4.59973,2470.063,2020-8-14T11:50:30Z
2020-08-14T09:52:44Z,42.805,6.029,13.2971,4.59973,2470.063,2020-8-14T11:53:33Z
2020-08-14T09:55:47Z,42.805,6.029,13.2974,4.59972,2470.063,2020-8-14T11:56:36Z
2020-08-14T09:58:50Z,42.805,6.029,13.2970,4.59974,2470.087,2020-8-14T11:59:40Z
2020-08-14T10:01:54Z,42.805,6.029,13.2969,4.59973,2470.077,2020-8-14T12:02:43Z
2020-08-14T10:04:57Z,42.805,6.029,13.2968,4.59973,2470.049,2020-8-14T12:05:46Z
2020-08-14T10:08:00Z,42.805,6.029,13.2971,4.59973,2470.063,2020-8-14T12:08:50Z
2020-08-14T10:11:04Z,42.805,6.029,13.2968,4.59973,2470.063,2020-8-14T12:11:53Z
2020-08-14T10:14:07Z,42.805,6.029,13.2971,4.59973,2470.063,2020-8-14T12:14:56Z
2020-08-14T10:17:10Z,42.805,6.029,13.2971,4.59973,2470.063,2020-8-14T12:17:59Z
2020-08-14T10:20:13Z,42.805,6.029,13.2972,4.59972,2470.053,2020-8-14T12:21:03Z
2020-08-14T10:23:17Z,42.805,6.029,13.2971,4.59972,2470.1,2020-8-14T12:24:06Z
2020-08-14T10:26:20Z,42.805,6.029,13.2971,4.59972,2470.063,2020-8-14T12:27:09Z
2020-08-14T10:29:23Z,42.805,6.029,13.2973,4.59973,2470.063,2020-8-14T12:30:12Z
2020-08-14T10:32:26Z,42.805,6.029,13.2973,4.59973,2470.087,2020-8-14T12:33:16Z
2020-08-14T10:35:30Z,42.805,6.029,13.2971,4.59973,2470.063,2020-8-14T12:36:19Z
2020-08-14T10:38:33Z,42.805,6.029,13.2969,4.59973,2470.087,2020-8-14T12:39:22Z
2020-08-14T10:41:36Z,42.805,6.029,13.2973,4.59973,2470.1,2020-8-14T12:42:25Z
2020-08-14T10:44:39Z,42.805,6.029,13.2971,4.59973,2470.063,2020-8-14T12:45:29Z
2020-08-14T10:47:43Z,42.805,6.029,13.2968,4.59972,2470.063,2020-8-14T12:48:32Z
2020-08-14T10:50:46Z,42.805,6.029,13.2971,4.59973,2470.063,2020-8-14T12:51:35Z
2020-08-14T10:53:49Z,42.805,6.029,13.2967,4.59971,2470.077,2020-8-14T12:54:38Z
2020-08-14T10:56:53Z,42.805,6.029,13.2970,4.59972,2470.063,2020-8-14T12:57:42Z
2020-08-14T10:59:56Z,42.805,6.029,13.2970,4.59973,2470.04,2020-8-14T13:00:45Z
2020-08-14T11:02:59Z,42.805,6.029,13.2970,4.59972,2470.063,2020-8-14T13:03:48Z
2020-08-14T11:06:02Z,42.805,6.029,13.2968,4.59973,2470.063,2020-8-14T13:06:52Z
2020-08-14T11:09:06Z,42.805,6.029,13.2973,4.59973,2470.04,2020-8-14T13:09:55Z
2020-08-14T11:12:09Z,42.805,6.029,13.2975,4.59972,2470.063,2020-8-14T13:12:58Z
2020-08-14T11:15:12Z,42.805,6.029,13.2968,4.59973,2470.087,2020-8-14T13:16:02Z
2020-08-14T11:18:16Z,42.805,6.029,13.2968,4.59972,2470.1,2020-8-14T13:19:05Z
2020-08-14T11:21:19Z,42.805,6.029,13.2968,4.59972,2470.077,2020-8-14T13:22:08Z
2020-08-14T11:24:22Z,42.805,6.029,13.2971,4.59973,2470.063,2020-8-14T13:25:11Z
2020-08-14T11:27:25Z,42.805,6.029,13.2969,4.59971,2470.063,2020-8-14T13:28:14Z
2020-08-14T11:30:29Z,42.805,6.029,13.2972,4.59972,2470.073,2020-8-14T13:31:18Z
2020-08-14T11:33:32Z,42.805,6.029,13.2974,4.59973,2470.063,2020-8-14T13:34:21Z
2020-08-14T11:36:35Z,42.805,6.029,13.2976,4.59973,2470.11,2020-8-14T13:37:24Z
2020-08-14T11:39:38Z,42.805,6.029,13.2969,4.59973,2470.087,2020-8-14T13:40:27Z
2020-08-14T11:42:42Z,42.805,6.029,13.2969,4.59973,2470.087,2020-8-14T13:43:31Z
2020-08-14T11:45:45Z,42.805,6.029,13.2973,4.59973,2470.063,2020-8-14T13:46:34Z
2020-08-14T11:48:48Z,42.805,6.029,13.2969,4.59973,2470.063,2020-8-14T13:49:37Z
2020-08-14T11:51:51Z,42.805,6.029,13.2970,4.59974,2470.077,2020-8-14T13:52:40Z
2020-08-14T11:54:55Z,42.805,6.029,13.2970,4.59972,2470.087,2020-8-14T13:55:44Z
2020-08-14T11:57:58Z,42.805,6.029,13.2968,4.59973,2470.087,2020-8-14T13:58:47Z
2020-08-14T12:01:01Z,42.805,6.029,13.2971,4.59972,2470.087,2020-8-14T14:01:50Z
2020-08-14T12:04:05Z,42.805,6.029,13.2972,4.59973,2470.073,2020-8-14T14:04:54Z
2020-08-14T12:07:08Z,42.805,6.029,13.2972,4.59973,2470.04,2020-8-14T14:07:57Z
2020-08-14T12:10:11Z,42.805,6.029,13.2971,4.59973,2470.087,2020-8-14T14:11:00Z
2020-08-14T12:13:14Z,42.805,6.029,13.2971,4.59973,2470.1,2020-8-14T14:14:03Z
2020-08-14T12:16:17Z,42.805,6.029,13.2976,4.59973,2470.087,2020-8-14T14:17:07Z
2020-08-14T12:19:21Z,42.805,6.029,13.2971,4.59973,2470.1,2020-8-14T14:20:10Z
2020-08-14T12:22:24Z,42.805,6.029,13.2972,4.59973,2470.1,2020-8-14T14:23:13Z
2020-08-14T12:25:27Z,42.805,6.029,13.2971,4.59973,2470.087,2020-8-14T14:26:16Z
2020-08-14T12:28:30Z,42.805,6.029,13.2964,4.59972,2470.087,2020-8-14T14:29:20Z
2020-08-14T12:31:34Z,42.805,6.029,13.2970,4.59973,2470.11,2020-8-14T14:32:23Z
2020-08-14T12:34:37Z,42.805,6.029,13.2972,4.59973,2470.147,2020-8-14T14:35:26Z
2020-08-14T12:37:40Z,42.805,6.029,13.2968,4.59973,2470.087,2020-8-14T14:38:29Z
2020-08-14T12:40:43Z,42.805,6.029,13.2974,4.59973,2470.124,2020-8-14T14:41:33Z
2020-08-14T12:43:47Z,42.805,6.029,13.2970,4.59973,2470.11,2020-8-14T14:44:36Z
2020-08-14T12:46:50Z,42.805,6.029,13.2971,4.59973,2470.1,2020-8-14T14:47:39Z
2020-08-14T12:49:53Z,42.805,6.029,13.2972,4.59973,2470.11,2020-8-14T14:50:42Z
2020-08-14T12:52:57Z,42.805,6.029,13.2971,4.59973,2470.133,2020-8-14T14:53:46Z
2020-08-14T12:56:00Z,42.805,6.029,13.2971,4.59973,2470.124,2020-8-14T14:56:49Z
2020-08-14T12:59:03Z,42.805,6.029,13.2971,4.59973,2470.124,2020-8-14T14:59:52Z
2020-08-14T13:02:06Z,42.805,6.029,13.2974,4.59972,2470.124,2020-8-14T15:02:55Z
2020-08-14T13:05:10Z,42.805,6.029,13.2970,4.59973,2470.124,2020-8-14T15:05:59Z
2020-08-14T13:08:13Z,42.805,6.029,13.2972,4.59972,2470.11,2020-8-14T15:09:02Z
2020-08-14T13:11:16Z,42.805,6.029,13.2972,4.59973,2470.133,2020-8-14T15:12:05Z
2020-08-14T13:14:19Z,42.805,6.029,13.2972,4.59973,2470.147,2020-8-14T15:15:08Z
2020-08-14T13:17:23Z,42.805,6.029,13.2970,4.59973,2470.133,2020-8-14T15:18:12Z
2020-08-14T13:20:26Z,42.805,6.029,13.2973,4.59973,2470.11,2020-8-14T15:21:15Z
2020-08-14T13:23:29Z,42.805,6.029,13.2972,4.59973,2470.124,2020-8-14T15:24:18Z
2020-08-14T13:26:33Z,42.805,6.029,13.2971,4.59973,2470.147,2020-8-14T15:27:22Z
2020-08-14T13:29:36Z,42.805,6.029,13.2969,4.59972,2470.156,2020-8-14T15:30:25Z
2020-08-14T13:32:39Z,42.805,6.029,13.2970,4.59973,2470.133,2020-8-14T15:33:28Z
2020-08-14T13:35:43Z,42.805,6.029,13.2972,4.59973,2470.133,2020-8-14T15:36:32Z
2020-08-14T13:38:46Z,42.805,6.029,13.2969,4.59973,2470.119,2020-8-14T15:39:35Z
2020-08-14T13:41:49Z,42.805,6.029,13.2969,4.59973,2470.133,2020-8-14T15:42:38Z
2020-08-14T13:44:52Z,42.805,6.029,13.2971,4.59973,2470.133,2020-8-14T15:45:41Z
2020-08-14T13:47:56Z,42.805,6.029,13.2969,4.59972,2470.133,2020-8-14T15:48:45Z
2020-08-14T13:50:59Z,42.805,6.029,13.2971,4.59971,2470.119,2020-8-14T15:51:48Z
2020-08-14T13:54:02Z,42.805,6.029,13.2968,4.59972,2470.133,2020-8-14T15:54:51Z
2020-08-14T13:57:05Z,42.805,6.029,13.2968,4.59972,2470.156,2020-8-14T15:57:55Z
2020-08-14T14:00:09Z,42.805,6.029,13.2966,4.59973,2470.133,2020-8-14T16:00:58Z
2020-08-14T14:03:12Z,42.805,6.029,13.2968,4.59973,2470.133,2020-8-14T16:04:01Z
2020-08-14T14:06:15Z,42.805,6.029,13.2970,4.59972,2470.133,2020-8-14T16:07:04Z
2020-08-14T14:09:18Z,42.805,6.029,13.2968,4.59973,2470.133,2020-8-14T16:10:08Z
2020-08-14T14:12:22Z,42.805,6.029,13.2968,4.59972,2470.156,2020-8-14T16:13:11Z
2020-08-14T14:15:25Z,42.805,6.029,13.2971,4.59972,2470.11,2020-8-14T16:16:14Z
2020-08-14T14:18:28Z,42.805,6.029,13.2974,4.59973,2470.133,2020-8-14T16:19:18Z
2020-08-14T14:21:32Z,42.805,6.029,13.2973,4.59973,2470.133,2020-8-14T16:22:21Z
2020-08-14T14:24:35Z,42.805,6.029,13.2968,4.59973,2470.156,2020-8-14T16:25:24Z
2020-08-14T14:27:38Z,42.805,6.029,13.2964,4.59973,2470.156,2020-8-14T16:28:27Z
2020-08-14T14:30:42Z,42.805,6.029,13.2968,4.59973,2470.1,2020-8-14T16:31:31Z
2020-08-14T14:33:45Z,42.805,6.029,13.2969,4.59973,2470.156,2020-8-14T16:34:34Z
2020-08-14T14:36:48Z,42.805,6.029,13.2972,4.59973,2470.133,2020-8-14T16:37:37Z
2020-08-14T14:39:51Z,42.805,6.029,13.2970,4.59973,2470.133,2020-8-14T16:40:40Z
2020-08-14T14:42:55Z,42.805,6.029,13.2968,4.59973,2470.133,2020-8-14T16:43:44Z
2020-08-14T14:45:58Z,42.805,6.029,13.2971,4.59973,2470.147,2020-8-14T16:46:47Z
2020-08-14T14:49:01Z,42.805,6.029,13.2971,4.59972,2470.133,2020-8-14T16:49:50Z
2020-08-14T14:52:04Z,42.805,6.029,13.2972,4.59973,2470.156,2020-8-14T16:52:54Z
2020-08-14T14:55:08Z,42.805,6.029,13.2968,4.59972,2470.18,2020-8-14T16:55:57Z
2020-08-14T14:58:11Z,42.805,6.029,13.2969,4.59971,2470.18,2020-8-14T16:59:00Z
2020-08-14T15:01:14Z,42.805,6.029,13.2974,4.59973,2470.156,2020-8-14T17:02:03Z
2020-08-14T15:04:17Z,42.805,6.029,13.2971,4.59972,2470.156,2020-8-14T17:05:07Z
2020-08-14T15:07:21Z,42.805,6.029,13.2968,4.59973,2470.133,2020-8-14T17:08:10Z
2020-08-14T15:10:24Z,42.805,6.029,13.2968,4.59972,2470.147,2020-8-14T17:11:13Z